This demonstration page uses our WeatherBlox Daily Observations layout. Learn more.

Left ArrowRight Arrow

44.8408, -93.29828

Hourly Observations for May 4, 2015

Temp ( °F °C ) Dew Point ( °F °C ) Humidity (%) Winds ( mph kmh ) Pressure ( in mb ) Visibility ( mi km ) Precip ( " mm )
12:53 am 00:53 Cloudy 58 14.4 47 8.3 67 67 NW 6 9 29.96 1014 10 16 0.00 0.00
1:53 am 01:53 Mostly Cloudy 57 13.9 43 6.1 60 60 N 7 11 29.97 1015 10 16 0.00 0.00
2:53 am 02:53 Mostly Cloudy 55 12.8 43 6.1 64 64 NNW 6 9 29.98 1015 10 16 0.00 0.00
3:53 am 03:53 Mostly Cloudy 55 12.8 37 2.8 51 51 N 14 22 30.01 1016 10 16 0.00 0.00
4:53 am 04:53 Partly Cloudy 53 11.7 35 1.7 51 51 N 12 19 30.04 1017 10 16 0.00 0.00
5:53 am 05:53 Mostly Clear 51 10.6 35 1.7 54 54 N 7 11 30.08 1019 10 16 0.00 0.00
6:53 am 06:53 Mostly Sunny 52 11.1 36 2.2 55 55 N 6 9 30.12 1020 10 16 0.00 0.00
7:53 am 07:53 Mostly Sunny 55 12.8 36 2.2 49 49 VRB 7 11 30.14 1021 10 16 0.00 0.00
8:53 am 08:53 Mostly Sunny 58 14.4 35 1.7 42 42 NNE 14 22 30.15 1021 10 16 0.00 0.00
9:53 am 09:53 Mostly Sunny 62 16.7 35 1.7 37 37 N 12 19 30.16 1021 10 16 0.00 0.00
10:53 am 10:53 Mostly Sunny 64 17.8 33 0.6 32 32 NNE 16 26 30.18 1022 10 16 0.00 0.00
11:53 am 11:53 Partly Cloudy 66 18.9 33 0.6 29 29 NNE 15 24 30.19 1022 10 16 0.00 0.00
12:53 pm 12:53 Partly Cloudy 67 19.4 31 -0.6 26 26 NNE 12 19 30.19 1022 10 16 0.00 0.00
1:53 pm 13:53 Partly Cloudy 67 19.4 29 -1.7 24 24 NNE 7 11 30.19 1022 10 16 0.00 0.00
2:53 pm 14:53 Partly Cloudy 69 20.6 31 -0.6 24 24 N 12 19 30.17 1022 10 16 0.00 0.00
3:53 pm 15:53 Mostly Cloudy 71 21.7 29 -1.7 21 21 NNE 9 15 30.16 1022 10 16 0.00 0.00
4:53 pm 16:53 Mostly Cloudy 71 21.7 28 -2.2 20 20 NNE 12 19 30.16 1021 10 16 0.00 0.00
5:53 pm 17:53 Mostly Cloudy 71 21.7 25 -3.9 18 18 NNE 6 9 30.16 1021 10 16 0.00 0.00
6:53 pm 18:53 Mostly Cloudy 68 20 24 -4.4 19 19 NE 7 11 30.16 1022 10 16 0.00 0.00
7:53 pm 19:53 Mostly Cloudy 69 20.6 26 -3.3 20 20 NE 7 11 30.16 1021 10 16 0.00 0.00
8:53 pm 20:53 Mostly Cloudy 65 18.3 28 -2.2 25 25 VRB 6 9 30.16 1022 10 16 0.00 0.00
9:53 pm 21:53 Mostly Cloudy 63 17.2 30 -1.1 29 29 ENE 5 7 30.18 1022 10 16 0.00 0.00
10:53 pm 22:53 Mostly Cloudy 59 15 31 -0.6 35 35 NNE 7 11 30.19 1022 10 16 0.00 0.00
11:53 pm 23:53 Mostly Cloudy 59 15 28 -2.2 31 31 NNE 7 11 30.18 1022 10 16 0.00 0.00

Powered by AerisWeather